Regional Weather Roundup
Issued by NWS Northern Indiana

Home | Current Version | Previous Version | Graphics & Text | Print | Product List | Glossary On
Versions: 1 2 3 4 5 6 7 8 9 10 11 12 13 14 15 16 17 18 19 20 21 22 23 24 25 26 27 28 29 30 31 32 33 34 35 36 37 38 39 40 41 42 43 44 45 46 47 48 49 50
000
ASUS43 KIWX 231900
RWRIWX

KIWX WEATHER ROUNDUP
NATIONAL WEATHER SERVICE NORTHERN INDIANA
200 PM EST THU FEB 23 2017

NOTE: "FAIR" INDICATES FEW OR NO CLOUDS BELOW 12,000 FEET WITH NO
SIGNIFICANT WEATHER AND/OR OBSTRUCTIONS TO VISIBILITY.

* THESE STATIONS ARE NOT UNDER NWS QUALITY CONTROL. THEY ALSO MAY NOT
  REPORT WEATHER SUCH AS PRECIPITATION OR FOG.

INZ001>027-232000-
NORTHERN INDIANA

CITY           SKY/WX    TMP DP  RH WIND       PRES   REMARKS
GARY*          CLOUDY    43  37  81 NE13      29.82F HAZE
MICHIGAN CITY* CLOUDY    43  37  81 N8        29.82F
KNOX*          CLOUDY    52  27  37 N13       29.79F
SOUTH BEND     CLOUDY    49  41  74 NW6       29.80F
ELKHART*       CLOUDY    50  41  71 NW8       29.80R
GOSHEN         PTSUNNY   57  44  62 NW10      29.77R
ANGOLA*        SUNNY     64  48  55 NW8       29.75R
FORT WAYNE     CLOUDY    65  48  54 S6        29.74F
PERU/GRISSOM   CLOUDY    63  53  70 SW7       29.74S

$$
INZ028>050-232000-
CENTRAL INDIANA

CITY           SKY/WX    TMP DP  RH WIND       PRES   REMARKS
LAFAYETTE      CLOUDY    60  53  77 W3        29.74F
KOKOMO*        CLOUDY    61  54  77 SW12      29.76S
MUNCIE*        CLOUDY    64  56  75 SW5       29.75F
INDIANAPOLIS   PTSUNNY   67  55  65 SW9G18    29.72F

$$
MIZ043>046-050>051-056>058-064>065-071>073-077>080-232000-
SOUTHWEST LOWER MICHIGAN

CITY           SKY/WX    TMP DP  RH WIND       PRES   REMARKS
BATTLE CREEK   SUNNY     54  44  69 NW9       29.78R
BENTON HARBOR  CLOUDY    40  35  83 VRB7      29.83S
COLDWATER*     SUNNY     60  45  56 W8        29.77R
HILLSDALE*     SUNNY     61  45  55 W8        29.74R
HOLLAND        CLOUDY    43  37  79 W9        29.83R
GRAND RAPIDS   PTSUNNY   51  39  63 W7        29.79R
KALAMAZOO      PTSUNNY   51  41  68 NW9       29.80R
STURGIS*       MOSUNNY   56  46  68 NW8       29.77R
THREE RIVERS*  FAIR      53  43  68 NW7       29.79S

$$
OHZ001>008-015>018-024>025-232000-
NORTHWEST OHIO

CITY           SKY/WX    TMP DP  RH WIND       PRES   REMARKS
DEFIANCE       SUNNY     65  46  50 W5        29.73F
FINDLAY        PTSUNNY   64  51  62 W12       29.74F
TOLEDO EXPRESS SUNNY     66  47  50 W8        29.72F
TOLEDO METCALF SUNNY     67  49  52 SW12      29.73F
LIMA           CLOUDY    62  56  80 SW12      29.75F

$$
AND FOR LAKE MICHIGAN COASTAL AND OPEN LAKE BUOY OBSERVATIONS

STATION/POSITION TEMP    WIND        PRES    VSBY  WAVE
                 AIR SEA DIR/SP/G                  HT/PER
                 (F)     (DEG/KT/KT) (MB)    (MI)  (FT/S)
CALUMET HARBOR    39     340/ 11/ 14 1009.5F
MICHIGAN CITY     37      20/  7/  8   N/A
BURNS HARBOR      39      60/  8/ 10 1010.2F
SAINT JOSEPH      39     340/  4/  5 1010.5

$$
&&




USA.gov is the U.S. government's official web portal to all federal, state and local government web resources and services.